Flag for Mongolia Weather past 2 weeks in Ulaanbaatar, Mongolia

Now
75 °F

Passing clouds.


Feels Like: 77 °F
Forecast: 58 / 85 °F
Wind: 1 mph from North

Location: Ulan-Bator

Current Time: Jul 23, 2014 at 4:13:53 PM

Latest Report: Jul 23, 2014 at 1:30 PM


Visibility: N/A

Pressure: 29.89 "Hg

Humidity: 34%

Dew point: 45 °F

Location of UlaanbaatarLocation

Historic Weather in Ulaanbaatar — Graph

°F

Ulaanbaatar temperature yesterday

Maximum temperature yesterday: 73 °F (at 3:00 PM)
Minimum temperature yesterday: 50 °F (at 4:00 AM)
Average temperature yesterday: 64 °F

Past Weeks' High & Low Weather Summary

 TemperatureHumidityPressure
High86 °F (Jul 17, 4:00 PM)100% (Jul 10, 6:00 AM)30.09 "Hg (Jul 10, 6:00 AM)
Low43 °F (Jul 10, 4:30 AM)27% (Jul 17, 4:00 PM)29.62 "Hg (Jul 17, 3:30 PM)
Average61 °F67%29.89 "Hg
* Reported Jul 8 1:00 PM — Jul 23 1:30 PM, Ulaanbaatar, Weather by CustomWeather, © 2014

Note: Actual official high and low records may vary slightly from our data, if they occured in-between our weather recording intervals... More about our weather records

Advertising

Ulaanbaatar weather history for previous 24 hours

 ConditionsComfort  
Time TempWeatherWind HumidityBarometerVisibility
1:30 PM
Jul 23
75 °FPassing clouds.1 mph34%29.89 "HgN/A
1:00 PM75 °FPassing clouds.1 mph34%29.92 "HgN/A
12:30 PM73 °FPassing clouds.1 mph38%29.92 "HgN/A
12:00 PM72 °FPassing clouds.1 mph41%29.92 "HgN/A
11:30 AM70 °FPassing clouds.1 mph57%29.95 "HgN/A
11:00 AM66 °FPassing clouds.1 mph56%29.95 "HgN/A
10:30 AM64 °FPassing clouds.3 mph68%29.95 "HgN/A
10:00 AM63 °FSunny.1 mph59%29.95 "Hg10 mi
9:30 AM61 °FSunny.1 mph63%29.95 "Hg10 mi
9:00 AM57 °FSunny.3 mph67%29.98 "Hg10 mi
8:30 AM55 °FSunny.1 mph72%29.98 "Hg10 mi
8:00 AM55 °FSunny.No wind72%29.95 "Hg10 mi
1:00 AM52 °FClear.3 mph82%29.95 "Hg10 mi
12:30 AM52 °FPassing clouds.6 mph88%29.95 "HgN/A
12:00 AM54 °FClear.1 mph82%29.95 "Hg10 mi
11:30 PM
Jul 22
59 °FClear.1 mph72%29.95 "Hg10 mi
11:00 PM57 °FClear.1 mph77%29.92 "Hg10 mi
10:30 PM59 °FClear.6 mph77%29.92 "Hg10 mi
10:00 PM64 °FClear.3 mph56%29.92 "Hg10 mi
9:30 PM63 °FSunny.3 mph64%29.92 "Hg10 mi
9:00 PM66 °FSunny.3 mph52%29.92 "Hg10 mi
8:30 PM68 °FSunny.6 mph49%29.89 "Hg10 mi
8:00 PM70 °FSunny.8 mph50%29.89 "Hg10 mi
7:30 PM70 °FSunny.13 mph46%29.89 "Hg10 mi
7:00 PM72 °FPassing clouds.13 mph41%29.89 "HgN/A
6:30 PM72 °FPassing clouds.13 mph44%29.89 "HgN/A
6:00 PM73 °FPassing clouds.13 mph44%29.89 "HgN/A
5:30 PM73 °FPassing clouds.13 mph44%29.89 "HgN/A
5:00 PM73 °FPassing clouds.10 mph41%29.89 "HgN/A
4:30 PM73 °FPassing clouds.10 mph47%29.89 "HgN/A
4:00 PM73 °FPassing clouds.13 mph47%29.89 "HgN/A
Weather by CustomWeather, © 2014

See weather overviewHow to use our weather pages